Powrót do katalogu

STARLINK-5614

AktywnyŁącznośćVLEO
NORAD 55756·PAYLOAD·🇺🇸 United States

Wystrzelony Mar 3, 2023 z Vandenberg Space Force Base

Loading…

Następne Przeloty (najbliższe 24 godziny)

TLE

ŚwieżeSource: CelesTrak SupGP

Epoka: Sep 15, 2026, 03:09 UTC

1 55756C 23028R   26258.13173611  .00006606  00000+0  55362-3 0  2588
2 55756  69.9999 126.6200 0002624 274.3645   4.1260 14.98325604    19

Śledź STARLINK-5614 w czasie rzeczywistym z AllMySat

Download on the App Store